Showing default

KUIPER-00415, 68930

Orbit data source: Space-Track

KUIPER-00415, 68930 is a payload satellite owned by Kuiper Systems (US) in LEO that was launched on Thu, 30 Apr 2026 UTC via an ARIANE 64 launch vehicle from the French Guiana (FRGUI). Payload-class satellites include a variety of spacecraft equipped with specific instruments for various scientific and technological missions. These include communications satellites like Starlink; space stations such as the ISS; scientific satellites like the Hubble; Earth observation satellites from companies like Planet Labs, Umbra, and HawkEye 360; GPS; miniature CubeSats for education and research; and military/defense satellites.

Loading next visibility...
Identifier
68930, 2026-098M
Orbit
LEO
Country
Flag of USUS
Related business
Manufacturer
Kuiper Systems
Mission
Operational spacecraft
Bus & Motor
KUIPER, Unknown motor
Mass
~490 kg wet, ~490 kg dry
Launch date (UTC)
2026-04-30 (2 months ago)
Launch vehicle
ARIANE 64
Launch site
French Guiana (FRGUI)
Object type
Payload
Rocket body
Debris
Shape & HBR
Unknown shape, 3.4 m
Radar Cross Section
Large (>1 m²)

Expand to show TLE details & history
Last TLE update: 10 hours ago

TLE from 10 hours ago
0 KUIPER-00415
1 68930U 26098M   26171.41668980  .00001932  00000-0  74835-4 0  9996
2 68930  51.8780  52.9301 0011124 148.8341 193.5713 15.31348359  5528
Epoch: 2026-06-20T10:00Z
TLE epoch observation values (Epoch: 2026-06-20T10:00:01.998Z)
Latitude
-13.9338°
Longitude
-16.87365°
Altitude
482.794 km
Speed
7.62 km/s
True Right ascension
02h 47m 03s
True Declination
-13° 51' 02"
Sunlit
Object was in daylight at epoch
Visualization orbit readout
Latitude
Unknown
Longitude
Unknown
Altitude
Unknown
Speed
Unknown
Apparent Right ascension
Unknown
Apparent Declination
Unknown
Sunlit
N/A
Visualization observer readout
Local Sidereal Time
07:20:21
Azimuth
Unknown
Elevation
Unknown
Doppler factor
Unknown
Orbital elements
Apogee altitude
479.874 km
Perigee altitude
464.633 km
Semi-major axis
6,850.39 km
Eccentricity
0.00111
Inclination
51.878°
RAAN
52.9301°
Arg. of periapsis
148.8341°
True anomaly
193.54143°
Mean anomaly
193.5713°
Eccentric anomaly
193.55636°
Mean motion
3.82798 °/min
Orbital period
94.04 mins
BSTAR
0.000074835
Loading maneuver chart data...
Computing Atmospheric mass density...
Loading historical data...
Loading historical data...
Loading historical data...
Loading historical data...
Loading historical data...
Loading historical data...
Loading historical data...

Documentation

Showing up to 5 results
|